Location: Casa Rossa
(45.2389°N, 12.2056°E)
Time: 04:34:43
(UTC+00:00)

Cosmos 841 Rocket - Pass Details

Date: 14 July 2020
Orbit: 747 x 772 km, 74.0° (Epoch: 11 August)

Event Time Altitude Azimuth Distance (km) Brightness Sun altitude
Rises 02:50:47 0° 337° (NNW) 3,208 7.0 -7.4°
Reaches altitude 10° 02:53:09 10° 336° (NNW) 2,282 6.2 -7.1°
Maximum altitude 02:58:19 79° 252° (WSW) 773 3.5 -6.4°
Drops below altitude 10° 03:03:29 10° 165° (SSE) 2,280 5.7 -5.7°
Sets 03:05:51 0° 165° (SSE) 3,205 6.5 -5.3°
